CST,Max TemperatureF,Mean TemperatureF,Min TemperatureF,Max Dew PointF,MeanDew PointF,Min DewpointF,Max Humidity, Mean Humidity, Min Humidity, Max Sea Level PressureIn, Mean Sea Level PressureIn, Min Sea Level PressureIn, Max VisibilityMiles, Mean VisibilityMiles, Min VisibilityMiles, Max Wind SpeedMPH, Mean Wind SpeedMPH, Max Gust SpeedMPH,PrecipitationIn, CloudCover, Events, WindDirDegrees
2012-12-1,35,30,26,34,30,25,100,93,87,29.88,29.75,29.68,8,3,1,16,10,22,0.00,7,,236
2012-12-2,44,34,24,37,31,23,100,92,71,29.89,29.73,29.41,10,8,0,15,6,20,0.00,4,,147
2012-12-3,46,30,14,39,27,7,100,76,68,29.91,29.55,29.36,10,10,5,29,15,37,0.03,4,,243
2012-12-4,17,12,8,10,7,3,100,79,67,30.37,30.20,29.90,10,10,10,21,14,30,0.00,1,,307
2012-12-5,35,22,10,23,15,7,92,70,52,30.36,29.96,29.62,10,10,10,22,11,26,0.00,2,,148
2012-12-6,30,26,19,27,18,14,93,81,68,29.98,29.82,29.60,10,10,7,24,14,34,0.00,6,,277
2012-12-7,19,12,6,14,7,1,100,80,68,30.09,30.05,29.98,10,10,8,12,6,,0.00,2,,354
2012-12-8,26,16,6,25,14,1,93,86,79,30.10,29.99,29.93,10,8,1,16,9,22,0.00,8,,93
2012-12-9,15,2,-11,10,-4,-17,92,80,66,30.30,30.21,30.11,10,9,2,22,15,25,0.00,1,,354
2012-12-10,12,-1,-14,9,-4,-20,100,84,67,30.11,29.87,29.69,10,9,5,15,5,17,0.00,2,,171
2012-12-11,10,0,-9,7,-3,-15,100,82,66,29.92,29.82,29.69,10,9,2,16,9,21,0.00,4,,291
2012-12-12,23,12,0,16,8,-8,93,82,72,29.97,29.82,29.73,10,10,9,18,10,22,0.00,7,,46
2012-12-13,17,12,8,16,8,3,100,86,73,30.11,30.06,29.97,10,9,4,10,6,,0.00,7,,343
2012-12-14,24,19,14,19,16,10,93,88,74,30.07,29.91,29.76,10,9,1,14,7,,0.00,3,,120
2012-12-15,24,18,12,21,15,10,100,92,86,29.76,29.68,29.61,8,6,3,15,7,,0.00,2,,7
2012-12-16,21,18,14,19,17,12,100,91,86,29.83,29.79,29.72,10,8,1,17,11,21,0.00,8,,338
2012-12-17,17,14,12,16,12,10,93,91,86,29.80,29.72,29.65,10,6,1,7,2,,0.00,8,,120
2012-12-18,19,18,17,18,16,16,100,93,86,29.70,29.66,29.63,10,6,1,7,5,,0.00,8,,120
2012-12-19,19,17,15,16,12,10,93,85,79,30.04,29.84,29.70,10,7,1,13,8,,0.00,8,,222
2012-12-20,15,6,-2,12,4,-8,92,85,73,30.20,30.12,30.05,10,9,3,13,8,,0.00,5,,328
2012-12-21,8,6,3,7,3,-2,100,85,67,30.27,30.19,30.06,10,10,7,8,5,,0.00,4,,169
2012-12-22,10,6,0,7,3,-4,100,82,67,30.20,30.10,30.01,10,9,4,20,9,22,0.00,3,,319
2012-12-23,1,-3,-7,0,-6,-11,92,83,71,30.21,30.19,30.14,10,10,10,12,7,,0.00,3,,358
2012-12-24,-2,-8,-14,-8,-12,-22,100,84,70,30.36,30.25,30.16,10,9,4,15,10,,0.00,2,,320
2012-12-25,-4,-10,-16,-6,-14,-26,100,87,64,30.48,30.43,30.36,10,10,3,8,3,,0.00,0,,233
2012-12-26,6,0,-5,1,-4,-9,100,84,72,30.38,30.31,30.25,10,9,3,7,3,,0.00,4,,154
2012-12-27,12,8,5,10,5,0,100,86,78,30.26,30.20,30.14,10,9,3,10,5,,0.00,5,,95
2012-12-28,14,10,6,12,6,1,100,89,73,30.14,30.06,29.99,10,7,2,12,6,,0.00,4,,185
2012-12-29,8,2,-5,9,-2,-9,100,86,72,30.07,30.02,29.97,10,9,2,10,7,,0.00,4,,217
2012-12-30,15,6,-2,12,6,-6,100,86,73,30.09,29.96,29.85,10,9,3,18,11,23,0.00,5,,233
2012-12-31,0,-6,-13,-6,-10,-18,100,85,70,30.25,30.21,30.09,10,10,1,12,6,,0.00,0,,283